Location: B?jaj?g
(11.7167°N, 92.6667°E)
Time: 11:08:23
(UTC+00:00)

Cosmos 1937 Rocket - Pass Details

Date: 18 September 2020
Orbit: 747 x 779 km, 74.0° (Epoch: 23 October)

Event Time Altitude Azimuth Distance (km) Brightness Sun altitude
Rises 12:02:13 0° 193° (SSW) 3,250 6.9 -4.3°
Reaches altitude 10° 12:04:36 10° 194° (SSW) 2,320 6.2 -4.9°
Maximum altitude 12:09:53 85° 282° (WNW) 779 3.6 -6.2°
Drops below altitude 10° 12:15:08 10° 11° (NNE) 2,305 5.9 -7.5°
Sets 12:17:29 0° 12° (NNE) 3,226 6.6 -8.0°
